When you browse on this site, cookies collect data to enhance your experience and personalize the content and advertising you see.
Visit our Privacy Policy to learn more. By continuing to use the site, you agree to this use of cookies and data.
  • In Hungary
  • List of Countries
  • For 7 days
  • Water Temperature
  • Weather Map
  • News
  • Weather Widgets
  • user-avatar
    Login

    Hourly Weather Amury

    Today, 6 December, Friday

    Time Temperature Precipitation Wind Pressure Humidity
    00:00 -2°C° 0 mm 3 mps 758 mmHg 66%
    01:00 -2°C° 0 mm 3 mps 758 mmHg 71%
    02:00 -4°C° 0 mm 3 mps 758 mmHg 75%
    03:00 -4°C° 0 mm 3 mps 757 mmHg 74%
    04:00 -4°C° 0 mm 3 mps 757 mmHg 74%
    05:00 -4°C° 0 mm 4 mps 756 mmHg 73%
    06:00 -4°C° 0 mm 4 mps 756 mmHg 72%
    07:00 -4°C° 0 mm 4 mps 756 mmHg 70%
    08:00 -4°C° 0 mm 4 mps 756 mmHg 68%
    09:00 -2°C° 0 mm 4 mps 756 mmHg 63%
    10:00 0°C° 0 mm 5 mps 756 mmHg 59%
    11:00 +1°C° 0 mm 6 mps 756 mmHg 54%
    12:00 +2°C° 0 mm 6 mps 755 mmHg 52%
    13:00 +3°C° 0 mm 6 mps 755 mmHg 51%
    14:00 +4°C° 0 mm 6 mps 754 mmHg 49%
    15:00 +3°C° 0 mm 5 mps 754 mmHg 54%
    16:00 +1°C° 0 mm 4 mps 754 mmHg 59%
    17:00 0°C° 0 mm 4 mps 753 mmHg 65%
    18:00 0°C° 0 mm 4 mps 753 mmHg 69%
    19:00 0°C° 0 mm 4 mps 753 mmHg 72%
    20:00 0°C° 0 mm 4 mps 753 mmHg 76%
    21:00 0°C° 0 mm 4 mps 753 mmHg 78%
    22:00 -1°C° 0 mm 4 mps 752 mmHg 80%
    23:00 -1°C° 0 mm 4 mps 752 mmHg 82%

    Tomorrow, 7 December, Saturday

    Time Temperature Precipitation Wind Pressure Humidity
    00:00 -1°C° 0 mm 4 mps 752 mmHg 81%
    01:00 -1°C° 0 mm 4 mps 752 mmHg 80%
    02:00 -1°C° 0 mm 4 mps 752 mmHg 79%
    03:00 -2°C° 0 mm 4 mps 751 mmHg 79%
    04:00 -2°C° 0 mm 4 mps 751 mmHg 80%
    05:00 -2°C° 0 mm 4 mps 750 mmHg 80%
    06:00 -2°C° 0 mm 4 mps 750 mmHg 80%
    07:00 -2°C° 0 mm 4 mps 750 mmHg 80%
    08:00 -2°C° 0 mm 4 mps 750 mmHg 79%
    09:00 -1°C° 0 mm 4 mps 750 mmHg 74%
    10:00 0°C° 0 mm 5 mps 750 mmHg 68%
    11:00 +1°C° 0 mm 5 mps 749 mmHg 62%
    12:00 +2°C° 0 mm 5 mps 749 mmHg 59%
    13:00 +3°C° 0 mm 4 mps 749 mmHg 57%
    14:00 +4°C° 0 mm 4 mps 748 mmHg 55%
    15:00 +3°C° 0 mm 3 mps 748 mmHg 58%
    16:00 +2°C° 0 mm 3 mps 748 mmHg 62%
    17:00 +2°C° 0 mm 2 mps 748 mmHg 65%
    18:00 +2°C° 0 mm 2 mps 748 mmHg 66%
    19:00 +2°C° 0 mm 2 mps 748 mmHg 66%
    20:00 +2°C° 0 mm 2 mps 748 mmHg 66%
    21:00 +2°C° 0 mm 2 mps 748 mmHg 66%
    22:00 +3°C° 0 mm 1 mps 748 mmHg 65%
    23:00 +3°C° 0 mm 1 mps 748 mmHg 64%

    Day after tomorrow, 8 December, Sunday

    Time Temperature Precipitation Wind Pressure Humidity
    00:00 +3°C° 0 mm 1 mps 748 mmHg 64%
    01:00 +2°C° 0 mm 2 mps 748 mmHg 65%
    02:00 +1°C° 0 mm 2 mps 748 mmHg 65%
    03:00 +1°C° 0 mm 2 mps 748 mmHg 67%
    04:00 +1°C° 0 mm 2 mps 748 mmHg 69%
    05:00 +2°C° 0 mm 1 mps 748 mmHg 71%
    06:00 +1°C° 0 mm 2 mps 748 mmHg 73%
    07:00 +1°C° 0 mm 2 mps 748 mmHg 74%
    08:00 +1°C° 0 mm 2 mps 749 mmHg 76%
    09:00 +3°C° 0 mm 2 mps 749 mmHg 71%
    10:00 +4°C° 0 mm 2 mps 749 mmHg 66%
    11:00 +5°C° 0 mm 3 mps 749 mmHg 62%
    12:00 +5°C° 0 mm 3 mps 749 mmHg 61%
    13:00 +7°C° 0 mm 3 mps 749 mmHg 60%
    14:00 +8°C° 0 mm 3 mps 748 mmHg 59%
    15:00 +5°C° 0 mm 3 mps 748 mmHg 65%
    16:00 +4°C° 0 mm 3 mps 749 mmHg 70%
    17:00 +4°C° 0 mm 2 mps 749 mmHg 75%
    18:00 +3°C° 0 mm 2 mps 749 mmHg 77%
    19:00 +3°C° 0 mm 2 mps 749 mmHg 79%
    20:00 +4°C° 0 mm 1 mps 749 mmHg 80%
    21:00 +3°C° 0 mm 1 mps 749 mmHg 80%
    22:00 +3°C° 0 mm 1 mps 749 mmHg 81%
    23:00 +3°C° 0 mm 1 mps 749 mmHg 81%

    9 December, Monday

    Time Temperature Precipitation Wind Pressure Humidity
    00:00 +3°C° 0 mm 1 mps 749 mmHg 81%
    01:00 +2°C° 0 mm 2 mps 749 mmHg 81%
    02:00 +2°C° 0 mm 2 mps 748 mmHg 81%
    03:00 +2°C° 0 mm 2 mps 748 mmHg 82%
    04:00 +2°C° 0 mm 2 mps 748 mmHg 83%
    05:00 +1°C° 0 mm 3 mps 747 mmHg 83%
    06:00 +1°C° 0 mm 3 mps 747 mmHg 85%
    07:00 +1°C° 0 mm 3 mps 747 mmHg 86%
    08:00 0°C° 0 mm 3 mps 747 mmHg 87%
    09:00 +1°C° 0 mm 4 mps 747 mmHg 83%
    10:00 +3°C° 0 mm 4 mps 746 mmHg 78%
    11:00 +3°C° 0 mm 5 mps 746 mmHg 73%
    12:00 +5°C° 0 mm 5 mps 745 mmHg 70%
    13:00 +6°C° 0 mm 5 mps 745 mmHg 66%
    14:00 +7°C° 0 mm 5 mps 744 mmHg 63%
    15:00 +6°C° 0 mm 5 mps 744 mmHg 67%
    16:00 +5°C° 0 mm 4 mps 744 mmHg 71%
    17:00 +4°C° 0 mm 4 mps 743 mmHg 76%
    18:00 +4°C° 0 mm 4 mps 743 mmHg 76%
    19:00 +5°C° 0 mm 5 mps 743 mmHg 77%
    20:00 +4°C° 0 mm 6 mps 742 mmHg 78%
    21:00 +4°C° 0 mm 6 mps 742 mmHg 82%
    22:00 +4°C° 0 mm 6 mps 742 mmHg 86%
    23:00 +4°C° 0 mm 6 mps 741 mmHg 90%

    10 December, Tuesday

    Time Temperature Precipitation Wind Pressure Humidity
    00:00 +4°C° 0 mm 6 mps 741 mmHg 90%
    01:00 +4°C° 0 mm 6 mps 740 mmHg 90%
    02:00 +4°C° 0 mm 7 mps 739 mmHg 90%
    03:00 +5°C° 0 mm 7 mps 739 mmHg 90%
    04:00 +5°C° 0 mm 7 mps 739 mmHg 90%
    05:00 +5°C° 0 mm 7 mps 738 mmHg 89%
    06:00 +5°C° 0 mm 7 mps 738 mmHg 89%
    07:00 +5°C° 0 mm 7 mps 737 mmHg 88%
    08:00 +5°C° 0 mm 7 mps 737 mmHg 88%
    09:00 +6°C° 0.1 mm 7 mps 737 mmHg 83%
    10:00 +6°C° 0.1 mm 7 mps 737 mmHg 79%
    11:00 +7°C° 0.1 mm 6 mps 737 mmHg 74%
    12:00 +8°C° 0 mm 7 mps 737 mmHg 69%
    13:00 +8°C° 0 mm 7 mps 737 mmHg 63%
    14:00 +9°C° 0 mm 7 mps 738 mmHg 58%
    15:00 +8°C° 0 mm 7 mps 738 mmHg 63%
    16:00 +5°C° 0 mm 8 mps 739 mmHg 68%
    17:00 +4°C° 0 mm 8 mps 740 mmHg 73%
    18:00 +4°C° 0 mm 8 mps 741 mmHg 74%
    19:00 +3°C° 0 mm 7 mps 741 mmHg 75%
    20:00 +3°C° 0 mm 7 mps 742 mmHg 75%
    21:00 +3°C° 0 mm 6 mps 743 mmHg 76%
    22:00 +2°C° 0 mm 6 mps 743 mmHg 77%
    23:00 +2°C° 0 mm 5 mps 744 mmHg 78%

    11 December, Wednesday

    Time Temperature Precipitation Wind Pressure Humidity
    00:00 +1°C° 0 mm 5 mps 745 mmHg 80%
    01:00 +1°C° 0 mm 4 mps 745 mmHg 82%
    02:00 0°C° 0 mm 4 mps 745 mmHg 83%
    03:00 0°C° 0 mm 4 mps 746 mmHg 83%
    04:00 0°C° 0 mm 4 mps 746 mmHg 82%
    05:00 0°C° 0 mm 5 mps 747 mmHg 81%
    06:00 0°C° 0 mm 5 mps 747 mmHg 83%
    07:00 0°C° 0 mm 5 mps 748 mmHg 85%
    08:00 +1°C° 0 mm 5 mps 749 mmHg 87%
    09:00 +1°C° 0 mm 6 mps 749 mmHg 78%
    10:00 +1°C° 0 mm 6 mps 750 mmHg 69%
    11:00 0°C° 0 mm 7 mps 750 mmHg 60%
    12:00 +1°C° 0 mm 6 mps 750 mmHg 56%
    13:00 +1°C° 0 mm 6 mps 750 mmHg 52%
    14:00 +1°C° 0 mm 6 mps 750 mmHg 48%
    15:00 0°C° 0 mm 5 mps 751 mmHg 50%
    16:00 -1°C° 0 mm 4 mps 751 mmHg 52%
    17:00 -1°C° 0 mm 3 mps 752 mmHg 54%
    18:00 -2°C° 0 mm 2 mps 752 mmHg 55%
    19:00 -2°C° 0 mm 2 mps 752 mmHg 57%
    20:00 -3°C° 0 mm 2 mps 752 mmHg 58%
    21:00 -1°C° 0 mm 1 mps 752 mmHg 59%
    22:00 -1°C° 0 mm 1 mps 752 mmHg 59%
    23:00 -1°C° 0 mm 1 mps 752 mmHg 59%
    Show more